Other Public Products
Issued by NWS Charleston, SC

Current Version | Previous Version | Graphics & Text | Print | Product List | Glossary On
Versions: 1 2 3 4 5 6 7 8 9 10 11 12 13 14 15 16 17 18 19 20 21 22 23 24 25 26 27 28 29 30 31 32 33 34 35 36 37 38 39 40 41 42 43 44 45 46 47 48 49 50
000
FPUS82 KCHS 272112
OPUCHS

TEST...KCHS/KSAV Gateway Observations...TEST
National Weather Service Charleston SC
500 PM EDT SUN MAY 27 2018

NOTE: "fair" indicates few or no clouds below 12,000 feet with no
significant weather and/or obstructions to visibility.

SCZ050-WAZ558-NCZ071-TXZ119-213-PAZ071-DCZ001-FLZ074-172-MI076-
NYZ176-178-MAZ016-IL014-TNZ027-NJZ106-GAZ044-MD014-272200-

...Gateway Observations for Charleston International...

CITY           SKY/WX    TMP DP  RH WIND       PRES   REMARKS
Chas Airport   RAIN      74  72  93 E13       29.96F FOG
Seattle        MOSUNNY   70  47  43 VRB3      30.21F
Charlotte      PTSUNNY   84  65  52 S13       29.96F
Dallas DFW     PTSUNNY   94  67  41 VRB3      29.78F HX  97
Dallas Love    MOSUNNY   96  69  41 SE12      29.79F HX 102
Philladelphia  CLOUDY    62  59  90 E12       30.01R
Wash National  LGT RAIN  82  71  69 SW10      29.91R
Baltimore      CLOUDY    70  70 100 E10       29.93S THUNDER
Miami          PTSUNNY   81  75  82 S20G30    29.80S
Detroit        FAIR      90  62  39 SW6       29.87F HX  90
Newark         CLOUDY    61  55  81 NE18G24   30.04R
Laguardia      CLOUDY    61  54  77 NE22G32   30.04S
J F K          CLOUDY    60  57  89 NE21G29   30.04S
Boston Logan   CLOUDY    53  46  77 NE20      30.18F
Ft. Lauderdale PTSUNNY   83  75  77 S24G31    29.79S HX  90
Chicago O`Hare FAIR      97  58  27 VRB3      29.84F HX  96
Chicago Midway FAIR      93  65  39 E12       29.84F HX  95
Houston Bush   PTSUNNY   90  73  57 VRB7      29.79F HX  98
Houston Hobby  PTSUNNY   91  75  59 E8        29.78F HX 101
Nashville      PTSUNNY   88  64  44 SE3       29.87F
Atlanta        PTSUNNY   82  64  54 SE12      29.91F

$$

GAZ044-118-TXZ119-213-NCZ071-DCZ001-MDZ014-506-PAZ021-071-NJZ106-
NYZ176-178-MAZ106-OHZ011-021-055-MIZ076-KYZ091-ILZ014-INZ047-
MNZ060-ONZ431-272200-

...Gateway Observations for Savannah International...

CITY           SKY/WX    TMP DP  RH WIND       PRES   REMARKS
Savannah Arpt  HVY RAIN  75  73  93 SE12      29.90F FOG
Atlanta        PTSUNNY   82  64  54 SE12      29.91F
Charlotte      PTSUNNY   84  65  52 S13       29.96F
Dallas DFW     PTSUNNY   94  67  41 VRB3      29.78F HX  97
Houston Bush   PTSUNNY   90  73  57 VRB7      29.79F HX  98
Wash National  LGT RAIN  82  71  69 SW10      29.91R
Wash Dulles    LGT RAIN  74  71  91 SW7       29.92R
Baltimore      CLOUDY    70  70 100 E10       29.93S THUNDER
Philadelphia   CLOUDY    62  59  90 E12       30.01R
Newark         CLOUDY    61  55  81 NE18G24   30.04R
Laguardia      CLOUDY    61  54  77 NE22G32   30.04S
J F K          CLOUDY    60  57  89 NE21G29   30.04S
Boston         CLOUDY    53  46  77 NE20      30.18F
Pittsburg      FAIR      83  66  56 N8        29.93S
Akron          PTSUNNY   86  67  52 NW3       29.94S
Cleveland      PTSUNNY   86  66  51 N12       29.92F
Cincinnati     FAIR      86  66  51 N6        29.90F
Columbus       FAIR      88  65  46 MISG      29.89F
Detroit        FAIR      90  62  39 SW6       29.87F HX  90
Chicago O`Hare FAIR      97  58  27 VRB3      29.84F HX  96
Minneapolis    CLOUDY    88  59  37 SE12      29.84F
Indianapolis   PTSUNNY   90  65  43 SW8       29.88F HX  92
Toronto Canada NOT AVBL

$$




USA.gov is the U.S. government's official web portal to all federal, state and local government web resources and services.